Starlink 32767

operational
NORAD ID: 62601 Int'l Des: 2025-008 Owner: SPXS Country: US Constellation: starlink
LEOCIRCULAR

关于 Starlink 32767

正在加载描述...

实时位置

正在加载3D地球...

即将过境

高度历史

Altitude vs Time

uPlot chart will show altitude changes over time

两行轨道根数

1 62601U 25008Q 25260.20339673 .00011108 00000-0 41278-3 0 9994
2 62601 42.9994 177.5279 0001584 267.0476 93.0194 15.27561906 39091
Epoch: Sep 17, 2025 • Age: 16 hours

当前状态

高度 486.0 km
速度 7.63 km/s
星下点 37.49°N, 14.5°W
发射日期 Jan 13, 2025
运行时间 0.6 years
类型 internet

技术详情

分类 Payload
质量 730.00 kg
干质量 700.00 kg
总质量 730.00 kg
长度 0.30 m
直径 4.10 m
跨度 29.00 m
形状 Box + pan
制造商 SPXS
平台类型 Starlink V2M
阶段状态 In Orbit
所有者/国家 SPXS/US

大型星座

Loading constellations...